Wind_Speed
18 17 13 12 13 14 15 15 15 15 15 15 16 16 15 14 12 10 10 10 10 10 11 12 13 13 15 16 17 19 20 22 23 23 24 24 25 26 26 27 29 30 31 32
18 17 17 16 15 17 17 17 17 17 17 17 17 16 16 15 14 13 12 11 11 12 13 14 15 16 17 18 20 21 23 24 25 26 27 27 28 29 29 30 31 32 33 34
18 18 18 17 16 18 19 19 20 20 20 19 18 17 17 16 15 14 14 13 12 13 14 15 17 18 20 21 23 24 25 27 28 29 30 30 31 31 32 33 34 34 35 36
19 18 19 16 18 20 22 22 23 23 22 22 20 19 17 16 15 15 15 15 16 16 17 19 20 21 23 24 26 27 28 30 31 32 32 33 33 34 35 36 37 37 38 39
21 21 20 18 19 21 22 23 23 23 23 22 21 20 18 17 16 18 19 20 20 21 22 22 23 24 25 27 29 30 31 32 33 34 34 35 36 37 38 39 39 40 40 41
24 24 23 20 21 22 22 23 22 23 23 23 23 23 21 19 19 21 22 23 24 25 27 27 27 28 29 30 31 32 33 34 35 36 37 38 39 40 41 42 42 42 42 43
27 27 25 22 21 21 22 22 22 22 22 22 22 24 23 22 23 24 26 27 28 29 30 31 32 33 33 34 34 35 36 36 37 38 39 40 41 43 44 45 45 45 45 44
26 25 23 22 22 21 20 20 20 20 19 20 20 21 23 23 25 26 28 29 31 33 34 35 36 36 37 38 37 38 38 39 40 40 42 43 44 45 46 47 47 47 47 47
25 24 23 23 21 21 20 20 19 18 19 20 21 21 23 25 27 29 30 31 33 35 36 37 38 39 39 40 40 40 41 42 43 44 45 46 47 48 48 49 49 49 49 49
27 26 25 25 22 23 23 22 21 21 21 22 22 23 24 26 27 29 30 32 34 35 36 38 39 40 40 41 43 44 45 45 46 47 48 49 50 51 51 51 52 51 52 52
28 28 27 27 26 25 24 24 24 25 24 24 25 25 26 27 29 30 31 33 34 36 37 39 40 41 43 44 45 46 47 48 49 50 51 52 52 53 54 54 54 55 55 55
30 29 30 29 27 26 25 26 27 27 27 27 28 29 30 31 32 33 34 35 36 38 39 40 41 42 44 45 46 47 48 49 51 52 53 54 55 56 56 57 57 58 58 58
30 29 29 28 28 28 28 28 29 29 30 31 32 33 34 35 35 36 37 38 39 40 41 42 43 44 45 46 47 49 50 52 53 55 56 57 58 58 58 59 60 60 61 61
27 27 28 28 29 30 30 31 31 32 33 34 35 36 37 37 38 39 40 41 42 43 44 45 46 47 48 49 50 52 53 55 56 58 59 60 60 61 62 62 62 62 62 61
25 26 27 28 29 30 32 32 33 34 35 36 37 38 39 40 41 42 43 44 44 45 46 47 48 50 51 52 54 55 57 58 59 60 61 62 63 64 64 64 64 63 62 60
25 26 27 29 30 31 32 33 34 35 37 38 39 40 41 42 43 44 45 46 47 48 50 51 52 53 55 56 57 58 59 60 61 62 63 64 64 64 64 64 63 61 59 57
26 27 28 29 30 31 32 34 35 37 38 40 41 42 43 44 45 47 48 49 51 52 53 55 55 56 57 58 59 60 61 62 63 64 63 63 63 63 62 60 58 56 53 50
28 29 28 28 30 32 34 35 37 38 40 41 43 44 46 47 48 49 50 52 53 54 55 56 57 58 59 60 61 62 63 63 62 62 61 60 59 57 55 53 51 49 46 43
29 28 28 30 33 34 36 37 39 40 42 44 45 46 48 49 50 52 53 54 55 55 56 57 58 59 60 61 61 61 60 59 58 57 56 54 52 50 48 46 44 41 38 36
32 32 33 34 36 37 39 40 42 44 45 46 47 49 50 51 52 53 54 55 56 57 57 58 58 58 57 57 56 55 54 53 52 52 50 49 47 45 43 40 38 34 32 31
34 36 38 39 39 41 43 44 46 47 47 48 49 50 52 53 54 55 55 55 55 55 55 55 54 53 52 51 50 49 49 49 48 47 45 44 41 40 37 34 30 27 25 25
39 40 41 42 43 44 46 47 48 49 50 50 51 52 53 54 54 54 53 53 53 52 51 49 48 47 46 45 45 45 44 44 44 42 40 38 36 34 30 26 23 21 20 19
42 43 44 46 47 48 48 49 50 50 51 51 52 52 52 52 51 50 49 48 47 46 44 43 42 41 41 41 41 41 40 40 39 38 36 33 31 27 23 20 18 16 16 15
45 47 48 49 49 49 50 50 50 51 51 51 50 50 49 48 46 45 44 42 40 39 38 38 37 37 37 38 38 38 37 37 35 33 30 28 24 20 17 14 12 12 11 11
47 48 49 49 49 50 50 50 49 49 48 47 46 44 43 41 40 39 37 36 35 35 35 35 35 35 36 37 36 35 34 32 30 28 25 21 17 14 12 9 8 7 8 8
47 48 48 48 47 47 46 45 45 44 42 41 39 37 36 35 34 33 32 32 32 32 32 33 33 34 34 34 33 31 29 27 25 23 20 17 13 10 8 5 3 4 4 6
45 45 44 44 43 41 40 39 38 37 36 34 33 32 32 31 30 30 30 29 29 29 30 31 32 31 31 30 28 27 25 23 22 20 16 12 9 7 5 3 2 2 2 4
Wind_Direction
300 302 288 268 257 250 250 253 259 266 272 277 280 284 289 294 300 305 311 311 308 305 301 298 296 293 292 291 292 292 292 293 294 296 298 300 301 301 302 303 303 303 305 306
292 296 285 265 258 249 249 252 257 263 268 272 274 278 283 288 294 300 303 302 299 296 294 293 292 291 289 289 289 289 289 290 291 293 295 296 298 299 300 301 303 304 303 305
290 292 287 273 261 252 251 256 259 261 267 271 270 273 278 281 287 293 295 294 293 288 287 290 291 290 290 289 289 289 288 289 290 292 293 295 296 298 298 300 303 304 304 305
286 288 286 275 259 254 256 259 262 262 262 260 266 267 273 275 280 288 290 291 291 289 287 289 291 291 291 291 290 288 288 289 290 292 293 294 295 296 298 300 301 303 303 304
280 283 283 276 266 262 264 264 264 264 262 265 266 265 269 270 275 283 289 292 292 291 290 288 289 290 291 292 291 290 289 290 291 292 292 294 295 296 298 299 300 302 303 303
277 278 278 275 268 264 269 271 270 271 270 270 267 265 269 272 278 281 288 289 288 289 289 288 290 292 291 291 290 289 289 290 290 291 292 293 295 296 297 298 299 300 301 302
277 276 276 274 266 265 270 278 279 273 275 276 271 267 273 277 283 286 288 288 289 291 292 292 292 292 292 291 290 289 289 289 289 290 291 292 293 294 296 297 298 299 300 300
280 279 275 274 264 267 277 280 284 279 282 281 280 281 282 282 283 284 288 289 291 292 291 291 291 291 291 290 289 288 288 288 288 289 290 291 292 293 294 295 296 297 298 298
281 285 289 287 281 281 282 284 282 286 291 292 290 287 285 285 285 286 287 288 289 289 289 289 289 289 289 289 289 288 289 289 289 290 290 291 291 292 293 294 295 295 296 297
283 287 288 289 288 292 292 292 296 297 295 294 293 291 290 289 289 289 289 288 288 288 288 288 288 288 288 289 289 289 290 290 290 290 291 291 291 292 292 293 293 293 294 295
285 287 289 289 290 290 292 295 296 296 297 296 296 295 294 293 292 292 291 290 289 288 288 288 288 288 288 289 289 289 290 290 290 290 290 291 291 291 292 292 292 292 293 293
283 284 286 286 287 288 290 290 292 295 295 295 296 296 296 295 294 294 292 291 291 290 290 289 289 289 289 289 289 289 289 289 289 290 290 290 290 290 290 290 290 290 290 291
280 282 283 283 284 285 285 287 289 291 293 296 296 296 296 296 295 295 294 293 293 292 292 291 291 291 291 290 290 289 289 289 289 289 289 289 289 289 289 289 289 289 289 289
277 279 280 281 282 284 284 288 290 293 295 296 296 296 296 296 296 295 295 294 294 294 294 293 293 293 293 292 292 291 291 291 290 290 290 290 290 290 290 289 288 287 287 286
274 275 277 280 282 284 287 291 293 294 295 296 296 296 296 296 296 296 296 296 296 296 296 295 295 295 295 294 294 293 293 293 293 293 292 292 291 291 290 289 288 287 286 285
272 274 277 282 285 288 292 294 295 295 295 295 295 295 296 296 296 296 297 297 297 297 298 298 298 297 297 297 296 296 296 296 295 295 294 293 292 292 291 289 288 287 285 284
272 276 280 284 287 290 292 293 293 294 294 294 295 295 296 296 297 297 298 299 299 299 300 300 300 299 299 299 299 299 298 298 297 296 295 295 294 293 292 290 289 287 285 283
277 279 280 282 285 288 290 291 291 292 293 294 295 296 297 297 298 298 299 299 300 300 300 300 301 301 301 300 300 300 299 299 298 298 297 297 296 295 294 292 290 287 283 280
291 289 287 288 289 289 290 291 292 293 294 295 296 296 297 298 298 299 299 300 300 300 301 301 301 301 301 301 301 301 300 300 300 299 299 299 298 297 296 294 292 288 280 275
290 289 288 288 289 290 290 291 292 294 294 295 296 296 297 298 299 299 300 300 301 301 302 302 302 302 302 302 302 302 302 303 303 302 301 300 299 298 297 294 291 286 277 270
286 286 286 286 287 289 290 292 293 294 295 296 297 297 298 299 300 300 301 301 302 302 303 303 303 304 304 304 305 305 305 306 306 305 304 303 301 300 298 292 287 283 275 266
284 285 285 286 288 290 292 293 295 295 296 297 298 298 299 300 300 301 302 302 303 303 303 303 304 305 306 307 308 309 309 310 310 309 308 307 305 302 298 291 284 278 270 264
284 285 286 289 291 292 294 295 296 296 297 298 298 299 299 300 301 301 302 302 303 303 303 305 307 309 310 312 313 313 313 314 313 313 312 310 308 305 299 292 283 274 264 256
285 287 290 291 293 294 295 295 296 297 297 298 298 299 300 300 301 302 302 303 303 304 305 308 310 312 314 316 316 316 316 317 317 316 316 315 313 308 303 295 281 267 255 247
286 288 290 292 293 294 294 295 295 296 297 298 299 299 300 301 302 303 304 304 305 306 308 311 313 313 315 317 318 318 319 320 321 321 321 322 321 317 313 304 284 261 243 236
287 288 290 291 292 293 294 295 295 296 297 298 299 300 301 302 304 306 306 307 308 309 311 314 315 315 317 319 321 321 322 323 325 328 329 328 326 323 321 314 282 252 236 228
288 290 291 292 293 294 295 295 296 297 298 299 299 300 301 303 305 306 307 309 311 312 314 316 317 318 320 322 323 325 325 327 329 333 337 339 341 339 337 326 295 262 239 234
Height
5857 5854 5854 5853 5853 5852 5852 5851 5850 5850 5849 5849 5849 5849 5849 5849 5848 5848 5847 5848 5847 5847 5847 5846 5846 5845 5845 5844 5843 5841 5840 5838 5836 5834 5832 5829 5826 5824 5821 5818 5815 5811 5808 5804
5852 5850 5849 5848 5848 5848 5847 5846 5845 5845 5845 5845 5844 5844 5844 5844 5843 5843 5843 5843 5843 5842 5842 5841 5841 5840 5840 5839 5837 5836 5834 5832 5830 5827 5825 5822 5819 5816 5813 5810 5806 5803 5799 5796
5848 5846 5844 5844 5844 5843 5841 5841 5841 5840 5841 5840 5840 5840 5839 5840 5840 5839 5839 5839 5839 5838 5837 5836 5835 5834 5833 5832 5831 5829 5827 5825 5822 5820 5817 5815 5811 5808 5804 5801 5798 5794 5790 5786
5842 5842 5840 5841 5838 5837 5836 5836 5836 5836 5835 5835 5834 5834 5834 5835 5835 5835 5835 5834 5834 5833 5832 5830 5829 5828 5826 5825 5823 5821 5819 5817 5814 5812 5809 5806 5803 5799 5796 5792 5788 5784 5781 5776
5836 5835 5835 5835 5833 5832 5831 5831 5830 5830 5830 5830 5829 5830 5829 5829 5829 5829 5829 5828 5827 5826 5825 5824 5823 5821 5819 5817 5815 5813 5810 5808 5805 5803 5800 5796 5793 5789 5786 5782 5778 5774 5770 5766
5830 5829 5829 5831 5828 5826 5827 5826 5825 5824 5824 5824 5824 5824 5825 5824 5823 5823 5822 5821 5820 5819 5817 5816 5815 5813 5811 5809 5806 5804 5801 5799 5796 5792 5789 5786 5782 5778 5775 5771 5767 5763 5759 5755
5823 5821 5822 5823 5822 5822 5822 5822 5820 5818 5818 5818 5818 5818 5818 5817 5816 5815 5814 5813 5811 5810 5809 5807 5806 5804 5801 5799 5797 5794 5791 5789 5785 5782 5778 5775 5771 5767 5763 5759 5755 5751 5747 5742
5815 5815 5817 5815 5814 5815 5815 5814 5813 5813 5813 5812 5812 5811 5811 5810 5809 5807 5806 5804 5802 5801 5799 5797 5795 5793 5791 5788 5786 5783 5780 5777 5774 5770 5766 5762 5758 5754 5750 5746 5742 5738 5733 5729
5810 5811 5810 5808 5807 5807 5806 5807 5806 5807 5807 5806 5805 5804 5804 5803 5801 5800 5798 5796 5794 5792 5789 5787 5785 5782 5779 5777 5774 5771 5767 5764 5760 5757 5753 5749 5745 5741 5736 5732 5728 5724 5719 5715
5802 5802 5802 5801 5801 5800 5800 5799 5799 5800 5800 5799 5798 5797 5796 5794 5793 5791 5789 5787 5785 5782 5780 5777 5774 5771 5767 5764 5761 5757 5754 5750 5746 5742 5738 5734 5730 5726 5722 5718 5713 5709 5705 5701
5794 5795 5794 5793 5793 5793 5793 5792 5792 5792 5791 5790 5790 5789 5788 5786 5784 5782 5780 5777 5775 5772 5769 5766 5763 5759 5755 5752 5748 5744 5740 5736 5732 5728 5723 5719 5715 5711 5706 5702 5697 5693 5689 5684
5788 5788 5787 5786 5785 5785 5785 5785 5784 5784 5783 5782 5781 5780 5778 5776 5774 5772 5769 5766 5763 5760 5757 5754 5750 5747 5743 5739 5735 5731 5727 5722 5718 5713 5708 5704 5699 5696 5690 5686 5681 5676 5671 5667
5781 5780 5780 5779 5778 5777 5777 5777 5776 5775 5774 5773 5771 5769 5767 5765 5763 5760 5757 5754 5751 5748 5744 5741 5737 5733 5729 5725 5721 5716 5712 5707 5702 5697 5692 5687 5682 5678 5674 5670 5664 5658 5653 5649
5773 5772 5771 5770 5769 5769 5768 5767 5767 5765 5764 5763 5761 5758 5756 5754 5751 5748 5745 5742 5738 5735 5731 5727 5723 5719 5714 5710 5705 5700 5695 5690 5685 5679 5674 5669 5663 5658 5653 5648 5645 5640 5634 5629
5765 5764 5763 5762 5761 5760 5759 5758 5757 5756 5754 5752 5749 5747 5744 5741 5738 5735 5732 5728 5725 5721 5717 5712 5708 5703 5698 5693 5688 5683 5677 5672 5666 5660 5654 5648 5642 5637 5631 5626 5621 5617 5613 5609
5756 5755 5754 5753 5752 5751 5750 5748 5747 5745 5743 5740 5738 5735 5733 5729 5726 5722 5718 5714 5711 5706 5702 5697 5692 5687 5681 5675 5670 5664 5658 5652 5645 5639 5633 5626 5620 5614 5608 5603 5598 5594 5591 5587
5747 5746 5745 5744 5743 5742 5741 5739 5736 5734 5732 5729 5726 5723 5720 5717 5713 5709 5705 5700 5696 5691 5686 5680 5675 5669 5663 5657 5651 5644 5638 5631 5624 5618 5611 5604 5598 5592 5586 5581 5576 5572 5570 5567
5738 5738 5737 5736 5736 5734 5732 5729 5727 5724 5721 5718 5715 5711 5707 5704 5700 5696 5691 5686 5681 5676 5670 5664 5658 5651 5645 5638 5632 5625 5618 5611 5604 5597 5590 5583 5577 5570 5565 5560 5556 5553 5551 5549
5729 5728 5728 5727 5725 5723 5721 5719 5716 5713 5710 5706 5703 5699 5695 5691 5686 5681 5676 5671 5666 5660 5654 5648 5641 5634 5627 5620 5613 5606 5598 5591 5584 5577 5570 5564 5558 5552 5547 5543 5539 5536 5534 5533
5721 5720 5718 5717 5715 5712 5710 5707 5705 5701 5698 5694 5690 5686 5681 5677 5672 5666 5661 5655 5650 5644 5637 5631 5624 5617 5610 5602 5595 5588 5581 5574 5567 5561 5554 5548 5542 5537 5532 5528 5524 5521 5520 5520
5711 5710 5708 5706 5703 5700 5698 5695 5691 5688 5684 5680 5676 5671 5667 5662 5656 5651 5645 5640 5633 5627 5621 5614 5607 5601 5594 5587 5580 5573 5566 5559 5552 5546 5539 5533 5528 5523 5518 5514 5512 5510 5509 5509
5700 5698 5696 5693 5691 5688 5685 5681 5678 5674 5670 5666 5661 5656 5652 5647 5641 5635 5630 5624 5618 5612 5606 5599 5593 5586 5580 5574 5567 5560 5554 5547 5540 5533 5526 5521 5515 5511 5506 5504 5502 5501 5501 5502
5688 5686 5683 5681 5678 5675 5671 5668 5664 5660 5655 5651 5646 5641 5637 5631 5626 5621 5616 5610 5604 5598 5592 5586 5581 5575 5568 5562 5556 5549 5543 5536 5529 5522 5516 5510 5505 5501 5498 5496 5495 5495 5495 5497
5676 5673 5670 5667 5664 5661 5657 5653 5649 5645 5641 5636 5631 5627 5622 5617 5612 5607 5601 5596 5591 5586 5581 5576 5571 5565 5559 5553 5546 5540 5533 5527 5520 5514 5508 5503 5498 5494 5492 5490 5490 5490 5492 5493
5663 5660 5657 5654 5651 5647 5643 5639 5635 5631 5627 5622 5618 5613 5608 5604 5599 5595 5590 5585 5581 5576 5572 5567 5562 5556 5551 5544 5538 5532 5526 5520 5514 5508 5502 5498 5494 5491 5489 5488 5488 5488 5489 5491
5651 5647 5644 5641 5637 5634 5630 5626 5622 5618 5614 5610 5605 5601 5597 5593 5589 5585 5580 5576 5572 5568 5563 5559 5553 5548 5543 5537 5531 5525 5519 5514 5509 5504 5499 5495 5492 5489 5488 5487 5487 5487 5488 5490
5637 5634 5631 5627 5624 5620 5616 5613 5609 5606 5602 5599 5595 5591 5587 5584 5580 5576 5572 5568 5564 5560 5556 5551 5546 5541 5536 5530 5525 5519 5514 5510 5505 5501 5497 5493 5490 5489 5487 5487 5487 5488 5488 5489